Starlink 30997

operational
NORAD ID: 58482 Int'l Des: 2023-186 Owner: SPXS Country: US Constellation: starlink
LEOCIRCULAR

关于 Starlink 30997

正在加载描述...

实时位置

正在加载3D地球...

即将过境

高度历史

Altitude vs Time

uPlot chart will show altitude changes over time

两行轨道根数

1 58482U 23186K 25305.58225539 .00006080 00000-0 46468-3 0 9996
2 58482 43.0031 43.2749 0001271 283.7902 76.2798 15.02543408106582
Epoch: Nov 1, 2025 • Age: 7 hours

当前状态

高度 562.7 km
速度 7.59 km/s
星下点 41.73°N, 121.94°E
发射日期 Dec 3, 2023
运行时间 1.9 years
类型 internet

技术详情

分类 Payload
质量 730.00 kg
干质量 700.00 kg
总质量 730.00 kg
长度 0.30 m
直径 4.10 m
跨度 29.00 m
形状 Box + pan
制造商 SPXS
平台类型 Starlink V2M
阶段状态 In Orbit
所有者/国家 SPXS/US

大型星座

Loading constellations...